Regional Weather Roundup
Issued by NWS Charleston, SC

Current Version | Previous Version | Text Only | Print | Product List | Glossary Off
Versions: 1 2 3 4 5 6 7 8 9 10 11 12 13 14 15 16 17 18 19 20 21 22 23 24 25 26 27 28 29 30 31 32 33 34 35 36 37 38 39 40 41 42 43 44 45 46 47 48 49 50

000
ASUS42 KCHS 270712
RWRCHS

REGIONAL WEATHER ROUNDUP
NATIONAL WEATHER SERVICE CHARLESTON SC
300 AM EDT THU APR 27 2017

NOTE: "FAIR" INDICATES FEW OR NO CLOUDS BELOW 12,000 FEET WITH NO
SIGNIFICANT WEATHER AND/OR OBSTRUCTIONS TO VISIBILITY.

NOT ALL STATIONS ARE QUALITY CONTROLLED. USE DATA WITH CAUTION...
ESPECIALLY DEWPOINT OBSERVATIONS.

SCZ027-030-031-034>040-042>050-270800-
...SOUTHEAST SOUTH CAROLINA...

CITY           SKY/WX    TMP DP  RH WIND       PRES   REMARKS
N CHARLESTON   CLEAR     64  61  90 S6        29.86F
WATERFRONT PRK   N/A     71  66  84 SW5       29.87S
JOHNS ISLAND   FAIR      70  66  88 S6        29.87F
PINOPOLIS        N/A     64  63  94 VRB2      29.78F
MONCKS CORNER  FAIR      59  57  94 CALM      29.87F
SUMMERVILLE    FAIR      63  61  94 CALM      29.87F
BEAUFORT MCAS  PTCLDY    70  67  90 S8        29.87F
BEAUFORT ARPT  FAIR      70  64  83 S7        29.86F
HILTON HEAD IS CLEAR     72  66  83 S13G18    29.88F
WALTERBORO     SUNNY     61  59  94 CALM      29.88S
ALLENDALE      FAIR      64  63  94 CALM      29.85F

...SOUTHERN MIDLANDS AND PEE DEE...

CITY           SKY/WX    TMP DP  RH WIND       PRES   REMARKS
GEORGETOWN     FAIR      64  63  94 S3        29.88F
KINGSTREE      FAIR      61  59  94 CALM      29.87F
ORANGEBURG     CLEAR     62  61  96 S3        29.86F
BARNWELL       FAIR      66  64  94 CALM      29.86S
AIKEN          FAIR      61  59  94 S5        29.88S
MANNING        FAIR      64  61  88 S23       29.87F
COLUMBIA       MOCLDY    67  60  78 S7        29.84F
SUMTER         CLEAR     63  60  88 CALM      29.84F
FLORENCE       CLEAR     61  59  93 CALM      29.87F
MYRTLE BEACH   NOT AVBL
N MYRTLE BEACH PTCLDY    68  66  93 SW8       29.88S

$$

GAZ063-065-086>088-099>101-113>116-118-119-134>141-150-270800-
...SOUTHEAST GEORGIA...

CITY           SKY/WX    TMP DP  RH WIND       PRES   REMARKS
SAVANNAH ARPT  CLEAR     68  62  81 S6        29.88F
HUNTER AAF     CLEAR     70  68  94 CALM      29.86S
FORT STEWART   CLEAR     64  60  88 S3        29.85F
STATESBORO     CLEAR     65  63  91 S5        29.86F
SYLVANIA       SUNNY    N/A N/A N/A CALM      29.87S
CLAXTON        FAIR     N/A N/A N/A CALM      29.87F

...CSRA...CENTRAL AND FAR SOUTHEAST GEORGIA...

CITY           SKY/WX    TMP DP  RH WIND       PRES   REMARKS
THOMSON        CLOUDY    65  59  82 W5        29.89S
AUGUSTA-BUSH   CLEAR     65  61  87 S3        29.83F
AUGUSTA-DANIEL PTCLDY    68  58  70 S6        29.85S
SWAINSBORO     PTSUNNY   63  57  82 S6        29.86F
VIDALIA        CLEAR     63  55  77 CALM      29.86F
EASTMAN        PTSUNNY   64  49  59 CALM      29.88S
HAZLEHURST     FAIR      64  59  82 S5        29.85F
ALMA           CLEAR     58  56  93 CALM      29.86F
WAYCROSS       PTCLDY    61  59  93 CALM      29.86F
JESUP          FAIR      61  59  94 CALM      29.88F
BAXLEY         FAIR      59  59 100 CALM      29.87S
BRUNSWICK      CLEAR     70  64  83 SW6       29.89F
SAINT SIMONS   CLEAR     70  63  78 SW7       29.88F

$$

SCZ027-028-034-036>038-045-046-048>050-GAZ119-141-270800-
...LAKE AND SUPPLEMENTAL COASTAL OBSERVATIONS...

STATION/POSITION TIME  TEMP    WIND        PRES    WAVE   SWELL
                       AIR SEA DIR/SP/G            HT/PER HT/PER/DIR
                 (UTC) (F)     (DEG/KT/KT) (MB)    (FT/S) (FT/S/D)
WINYAH BAY       NOT AVBL
LAKE MURRAY      0620   68     180/  7/  9 1010.2F
ACE BASIN NERRS  0545   70        CALM     1012.0
FORT PULASKI     0642   72 74  220/ 11/ 15 1011.7F
SAPELO ISLAND    0600   71     200/  9     1012.0

$$

ANZ835-935-AMZ111-154-330-350-352-354-370-450-454-472-270800-
...C-MAN AND BUOY OBSERVATIONS...

STATION/POSITION TIME  TEMP    WIND        PRES    WAVE   SWELL
                       AIR SEA DIR/SP/G            HT/PER HT/PER/DIR
                 (UTC) (F)     (DEG/KT/KT) (MB)    (FT/S) (FT/S/D)
BUOY 41004       0650   74 73  210/ 14/ 17 1011.8F   5/ 8   3/140/ 8
BUOY 41008       0650   73 72  180/ 16/ 19 1011.4F   4/ 5   2/100/ 9
FOLLY BEACH CMAN 0600   72     210/ 10/ 12 1012.5F
CAPERS NEARSHORE 0608   75 72  210/ 10/ 16 1011.9S
FRIPP NEARSHORE  0608   72 72  210/ 14/ 17 1011.6F


STATION/POSITION TIME  TEMP    WIND        PRES    WAVE   SWELL
                       AIR SEA DIR/SP/G            HT/PER HT/PER/DIR
                 (UTC) (F)     (DEG/KT/KT) (MB)    (FT/S) (FT/S/D)
5E ST. MARYS GA  0630      73                N/A     4/ 5   2/130/11
FRYING PAN BUOY  0650   74 74  210/ 10/ 12 1012.0F   4/ 8   3/120/ 8
BUOY 41025       0650   76 76  230/ 19/ 23 1011.8F   7/ 9   5/130/ 9
CAPE LOOKOUT NC  0600   71     210/  8/ 10 1011.9S
BUOY 41002       0650   74 75  190/ 16/ 19 1014.4F   6/ 9   3/110/ 9
BUOY 41010       0650   77 78  150/ 12/ 16 1013.5F   4/ 8   3/130/ 8
ST AUGUSTINE FL  0700   69 74  190/  6/  6 1013.3F


$$




USA.gov is the U.S. government's official web portal to all federal, state and local government web resources and services.